< < Back
Terminal Aerodrome Forecast


Current Version              Previous Versions:   1  2  3  4  5  6  7  8  9  

Terminal Aerodrome Forecast

452
FTUS44 KMRX 202320
TAFCHA
TAF
KCHA 202320Z 2100/2124 23005KT P6SM SCT050 BKN120
     FM210900 VRB03KT P6SM SKC
     FM211400 34010KT P6SM SCT050=



Latest METAR

594
SAUS80 KWBC 220300 RRA
MTRCHA
METAR KCHA 220253Z 01009KT 10SM CLR 15/08 A3008 RMK AO2 SLP182 T01500078
53018


USA.gov is the U.S. government's official web portal to all federal, state and local government web resources and services.